Погода в Партизане

Россия / Тульская область     53°56′57″N   38°05′49″E
темп.,
°C
ветер,
м/с
пор.,
м/с
влажн.,
%
обл.,
%
осадки,
мм/ч
давл.,
гПа
погр.,
м
15 апреля, чт
чт1500:00+12юв3352100 0.0 101624
03:00+11в356090 0.0 101668
06:00+10вюв4866100 0.0 1015151
09:00+13вюв4659100 0.0 1015235
12:00+17вюв5744100 0.0 1014825
15:00+18вюв5639100 0.0 10141592
18:00+17вюв2349100 0.0 101365
21:00+12ююв2578100 0.3 1015181
16 апреля, пт
пт1600:00+11в3482100 0.0 101560
03:00+10вюв3787100 0.6 1016213
06:00+10в338499 0.1 101664
09:00+12всв4573100 0.1 1017368
12:00+14всв5566100 0.1 1017665
15:00+16в4657100 0.1 10171206
18:00+15в61160100 1.9 1017580
21:00+11ю3685100 5.6 1018161
17 апреля, сб
сб1700:00+11в4889100 0.8 1019302
03:00+9всв6109496 1.7 1019283
06:00+8св699580 2.2 1020288
09:00+9всв798768 2.3 1021472
12:00+14всв8106512 0.0 1020986
15:00+15всв91158100 0.0 10201254
18:00+14всв8126372 0.3 10201120
21:00+11всв7146967 0.3 1022635
18 апреля, вс
вс1800:00+9всв612727 0.0 1023460
03:00+6св612674 0.0 1024363
06:00+5всв613711 0.0 1025370
09:00+8всв710570 0.0 1025628
12:00+12всв68440 0.0 10261216
15:00+13всв67382 0.0 10261584
18:00+12всв57443 0.0 10271009
21:00+9в38580 0.0 1028158
19 апреля, пн
пн1900:00+7в310673 0.0 1029217
03:00+6в37720 0.0 1030113
06:00+5в4107964 0.0 1030211
09:00+8в6869100 0.0 1030529
12:00+11вюв6856100 0.0 10301459
15:00+11в6857100 0.0 10291565
18:00+10в61056100 0.0 1028740
21:00+8в71350100 0.0 1028606